Powrót do katalogu

STARLINK-11223

AktywnyŁącznośćVLEO
NORAD 60307·PAYLOAD·🇺🇸 United States

Wystrzelony Jul 28, 2024 z Vandenberg Space Force Base

Loading…

Następne Przeloty (najbliższe 24 godziny)

TLE

ŚwieżeSource: CelesTrak SupGP

Epoka: Sep 14, 2026, 21:34 UTC

1 60307C 24133G   26257.89909722 -.00011823  00000+0 -97421-4 0  2577
2 60307  53.1571 293.3057 0001249  81.2221 293.6189 15.69706818    11

Śledź STARLINK-11223 w czasie rzeczywistym z AllMySat

Download on the App Store